TimeEDT,TemperatureF,Dew PointF,Humidity,Sea Level PressureIn,VisibilityMPH,Wind Direction,Wind SpeedMPH,Gust SpeedMPH,PrecipitationIn,Events,Conditions,WindDirDegrees,DateUTC
12:53 AM,70.0,66.0,87,29.92,10.0,Calm,Calm,-,N/A,,Clear,0,2013-07-21 04:53:00
1:53 AM,70.0,66.0,87,29.91,10.0,Calm,Calm,-,N/A,,Clear,0,2013-07-21 05:53:00
2:53 AM,71.1,66.0,84,29.92,10.0,WNW,3.5,-,N/A,,Clear,300,2013-07-21 06:53:00
3:53 AM,70.0,66.0,87,29.92,10.0,Calm,Calm,-,N/A,,Clear,0,2013-07-21 07:53:00
4:53 AM,69.1,66.0,90,29.91,10.0,WNW,3.5,-,N/A,,Partly Cloudy,300,2013-07-21 08:53:00
5:53 AM,69.1,66.0,90,29.93,10.0,Calm,Calm,-,N/A,,Mostly Cloudy,0,2013-07-21 09:53:00
6:35 AM,69.8,66.2,88,29.95,10.0,Calm,Calm,-,N/A,,Overcast,0,2013-07-21 10:35:00
6:53 AM,70.0,66.9,90,29.93,9.0,Calm,Calm,-,N/A,,Overcast,0,2013-07-21 10:53:00
7:53 AM,70.0,66.9,90,29.94,6.0,Calm,Calm,-,N/A,,Overcast,0,2013-07-21 11:53:00
8:53 AM,71.1,68.0,90,29.95,5.0,Calm,Calm,-,N/A,,Overcast,0,2013-07-21 12:53:00
9:53 AM,72.0,69.1,91,29.96,4.0,Calm,Calm,-,N/A,,Overcast,0,2013-07-21 13:53:00
10:53 AM,73.9,69.1,85,29.97,6.0,Calm,Calm,-,N/A,,Haze,0,2013-07-21 14:53:00
11:22 AM,75.2,69.8,83,29.99,8.0,SE,3.5,-,N/A,,Overcast,140,2013-07-21 15:22:00
11:53 AM,78.1,70.0,76,29.97,9.0,Calm,Calm,-,N/A,,Mostly Cloudy,0,2013-07-21 15:53:00
12:02 PM,78.8,71.6,78,29.99,9.0,Calm,Calm,-,N/A,,Scattered Clouds,0,2013-07-21 16:02:00
12:53 PM,79.0,70.0,74,29.96,10.0,Calm,Calm,-,N/A,,Scattered Clouds,0,2013-07-21 16:53:00
1:53 PM,81.0,70.0,69,29.96,10.0,Calm,Calm,-,N/A,,Clear,0,2013-07-21 17:53:00
2:53 PM,82.0,69.1,65,29.94,10.0,Calm,Calm,-,N/A,,Partly Cloudy,0,2013-07-21 18:53:00
3:53 PM,82.0,68.0,62,29.93,10.0,ENE,4.6,-,N/A,,Clear,70,2013-07-21 19:53:00
4:53 PM,82.0,68.0,62,29.91,10.0,ENE,4.6,-,N/A,,Clear,70,2013-07-21 20:53:00
5:53 PM,81.0,68.0,65,29.91,10.0,East,4.6,-,N/A,,Clear,80,2013-07-21 21:53:00
6:53 PM,80.1,69.1,69,29.89,10.0,East,4.6,-,N/A,,Clear,80,2013-07-21 22:53:00
7:53 PM,78.1,68.0,71,29.88,10.0,East,5.8,-,N/A,,Clear,80,2013-07-21 23:53:00
8:53 PM,77.0,69.1,76,29.90,10.0,East,3.5,-,N/A,,Clear,80,2013-07-22 00:53:00
9:53 PM,77.0,70.0,79,29.91,10.0,East,3.5,-,N/A,,Clear,80,2013-07-22 01:53:00
10:53 PM,75.9,70.0,82,29.92,10.0,East,4.6,-,N/A,,Clear,90,2013-07-22 02:53:00
11:53 PM,75.9,70.0,82,29.92,10.0,ESE,5.8,-,N/A,,Clear,110,2013-07-22 03:53:00